This demonstration page uses our WeatherBlox Daily Observations layout. Learn more.

Left ArrowRight Arrow

Hourly Observations for October 5, 2020

Temp ( °F °C ) Dew Point ( °F °C ) Humidity (%) Winds ( mph kmh ) Pressure ( in mb ) Visibility ( mi km ) Precip ( " mm )
12:53 am 00:53 Clear 55 12.8 40 4.4 57 57 S 12 19 30.01 1016 10 16 0.00 0.00
1:53 am 01:53 Clear 54 12.2 40 4.4 59 59 S 14 22 29.99 1016 10 16 0.00 0.00
2:53 am 02:53 Clear 52 11.1 40 4.4 64 64 S 10 17 29.98 1015 10 16 0.00 0.00
3:53 am 03:53 Clear 51 10.6 40 4.4 66 66 S 10 17 29.96 1015 10 16 0.00 0.00
4:53 am 04:53 Clear 52 11.1 41 5 66 66 S 10 17 29.95 1014 10 16 0.00 0.00
5:53 am 05:53 Clear 52 11.1 41 5 66 66 S 12 19 29.94 1014 10 16 0.00 0.00
6:53 am 06:53 Clear 52 11.1 41 5 66 66 S 12 19 29.93 1014 10 16 0.00 0.00
7:53 am 07:53 Sunny 52 11.1 41 5 66 66 SSW 10 17 29.93 1014 10 16 0.00 0.00
8:53 am 08:53 Sunny 54 12.2 41 5 62 62 SSW 13 20 29.93 1014 10 16 0.00 0.00
9:53 am 09:53 Sunny 56 13.3 42 5.6 60 60 SSW 14 22 29.93 1014 10 16 0.00 0.00
10:53 am 10:53 Sunny 62 16.7 42 5.6 48 48 SSW 16 26 29.91 1013 10 16 0.00 0.00
11:53 am 11:53 Sunny 66 18.9 42 5.6 42 42 SSW 18 30 29.89 1012 10 16 0.00 0.00
12:53 pm 12:53 Sunny 71 21.7 43 6.1 36 36 SSW 14 22 29.86 1011 10 16 0.00 0.00
1:53 pm 13:53 Sunny 76 24.4 43 6.1 31 31 SW 10 17 29.85 1011 10 16 0.00 0.00
2:53 pm 14:53 Sunny 80 26.7 41 5 25 25 WSW 15 24 29.84 1011 10 16 0.00 0.00
3:53 pm 15:53 Sunny 82 27.8 40 4.4 22 22 WSW 8 13 29.83 1010 10 16 0.00 0.00
4:53 pm 16:53 Sunny 84 28.9 38 3.3 19 19 W 9 15 29.83 1010 10 16 0.00 0.00
5:53 pm 17:53 Sunny 81 27.2 41 5 24 24 NNW 6 9 29.85 1011 10 16 0.00 0.00
6:53 pm 18:53 Sunny 73 22.8 43 6.1 34 34 N 6 9 29.90 1012 9 14 0.00 0.00
7:53 pm 19:53 Clear 69 20.6 41 5 36 36 NNW 9 15 29.93 1014 8 13 0.00 0.00
8:53 pm 20:53 Clear 70 21.1 43 6.1 38 38 N 15 24 29.98 1015 10 16 0.00 0.00
9:53 pm 21:53 Clear 61 16.1 42 5.6 50 50 N 10 17 30.01 1016 10 16 0.00 0.00
10:53 pm 22:53 Clear 59 15 43 6.1 56 56 N 7 11 30.02 1017 10 16 0.00 0.00
11:53 pm 23:53 Clear 56 13.3 43 6.1 62 62 N 3 6 30.04 1017 10 16 0.00 0.00

Powered by AerisWeather